#timestamp,LO_Frequency,Hit,StdDev 
1558681215.9,286047000.3,N
1558681235.7,286046998.2,Y
1558681255.6,286047002.3,P
1558681275.4,286047002.4,N
1558681295.2,286047000.2,N
1558681315.1,286046998.3,N
1558681316.0,286046998.3,N
1558681335.8,286047000.2,N
1558681355.7,286047000.0,N
1558681375.5,286046998.2,N
1558681395.3,286047000.3,N
1558681415.2,286046999.7,N
1558681435.0,286047002.2,N
1558681435.9,286047002.2,N
1558681455.7,286046999.7,N
1558681475.6,286047000.5,N
1558681495.4,286047000.6,N
1558681515.3,286047000.0,N
1558681535.1,286047002.8,N
1558681536.0,286047002.8,N
1558681555.8,286047002.5,N
1558681575.7,286046998.4,N
1558681595.5,286047000.7,N
1558681615.3,286047002.6,N
1558681635.2,286047000.8,N
1558681655.0,286047000.6,N
1558681655.9,286047000.6,N
1558681675.8,286047001.5,N
1558681695.6,286047001.5,N
1558681715.4,286047002.7,N
1558681735.3,286046998.3,N
1558681755.1,286047002.5,N
1558681775.9,286047001.3,N
1558681795.7,286047004.0,N
1558681815.5,286047003.4,N
1558681835.4,286047005.8,Y
1558681855.2,286047006.7,P
1558681875.0,286047008.7,N
1558681876.0,286047008.7,N
1558681895.8,286047005.1,N
1558681915.6,286047003.1,N
1558681935.5,286047005.5,N
1558681955.3,286047007.5,N
1558681975.1,286047004.7,N
1558681995.9,286047003.6,N
1558682015.7,286047004.1,N
1558682035.5,286047005.5,N
1558682055.4,286047003.2,N
1558682075.2,286047002.8,N
1558682095.1,286047002.2,N
1558682096.0,286047002.2,N
1558682115.8,286047002.1,N
1558682135.6,286047002.4,N
1558682155.5,286046998.5,N
1558682175.3,286047002.8,N
1558682195.1,286047003.1,N
1558682215.9,286047005.4,N
1558682235.7,286047001.7,N
1558682255.6,286047003.3,N
1558682275.4,286047005.9,N
1558682295.2,286047001.5,N
1558682315.1,286047003.0,N
1558682316.0,286047003.0,N
1558682335.9,286047001.5,N
1558682355.7,286047002.2,N
1558682375.5,286047001.6,N
1558682395.4,286047004.2,N
1558682415.2,286047007.6,Y
1558682435.0,286046998.6,P
1558682435.9,286046998.6,N
1558682455.8,286046998.2,N
1558682475.6,286046998.5,N
1558682495.5,286046999.2,N
1558682515.3,286046997.2,N
1558682535.1,286046997.0,N
1558682555.9,286046998.3,N
1558682575.7,286046999.2,N
1558682595.5,286046996.5,N
1558682615.4,286046999.6,N
1558682635.2,286046999.2,N
1558682655.1,286047000.0,N
1558682656.0,286047000.0,N
1558682675.8,286047000.9,N
1558682695.6,286047002.0,N
1558682715.5,286047002.2,N
1558682735.3,286047000.3,N
1558682755.1,286046998.4,N
1558682775.9,286046999.0,N
1558682795.7,286046999.6,N
1558682815.6,286046998.8,N
1558682835.4,286047002.2,N
1558682855.2,286047001.5,N
1558682875.1,286047001.4,N
1558682876.0,286047001.4,N
1558682895.8,286047002.1,N
1558682915.6,286047000.9,N
1558682935.5,286046998.6,N
1558682955.3,286047000.6,N
1558682975.2,286046998.8,N
1558682995.9,286047000.0,N
1558683015.7,286047004.4,N
1558683035.6,286047001.8,N
1558683055.4,286047001.9,N
1558683075.3,286047002.7,N
1558683095.1,286047004.0,N
1558683096.0,286047004.0,N
1558683115.8,286047002.6,N
1558683135.7,286047000.7,N
1558683155.5,286047001.2,N
1558683175.3,286046998.1,N
1558683195.2,286046999.2,N
1558683215.0,286046999.5,N
1558683215.9,286046999.5,N
1558683235.8,286046998.1,N
1558683255.6,286046999.7,N
1558683275.4,286046999.3,N
1558683295.3,286046996.9,N
1558683315.1,286046997.6,N
1558683335.8,286046996.7,N
1558683355.7,286046999.2,N
1558683375.5,286046996.8,N
1558683395.4,286046996.6,N
1558683415.2,286046996.8,N
1558683435.0,286046999.2,N
1558683435.9,286046999.2,N
1558683455.8,286046999.1,N
1558683475.6,286046997.1,N
1558683495.4,286046996.6,N
1558683515.3,286046996.7,N
1558683535.1,286046997.3,N
1558683555.9,286046995.5,N
1558683575.7,286046995.5,N
1558683595.5,286046995.1,N
1558683615.4,286046995.9,N
1558683635.2,286046994.3,N
1558683655.1,286046994.7,N
1558683656.0,286046994.7,N
1558683675.8,286046993.8,Y
1558683695.6,286046995.0,P
1558683715.5,286046993.7,P
1558683735.3,286046993.5,P
1558683755.1,286046993.4,Y
1558683775.9,286047000.8,P
1558683795.7,286047000.7,N
1558683815.6,286046998.5,N
1558683835.4,286047002.1,N
1558683855.2,286047002.6,N
1558683875.1,286047002.3,N
1558683876.0,286047002.3,N
1558683895.8,286047001.8,N
1558683915.6,286047002.1,N
1558683935.5,286047001.6,N
1558683955.3,286047004.3,N
1558683975.2,286047002.2,N
1558683995.9,286047004.4,N
1558684015.7,286047004.2,N
1558684035.6,286047002.2,N
1558684055.4,286047002.8,N
1558684075.2,286047002.4,N
1558684095.1,286047002.0,N
1558684096.0,286047002.0,N
1558684115.8,286046999.7,N
1558684135.7,286046999.7,N
1558684155.5,286047000.2,N
1558684175.3,286046998.4,N
1558684195.2,286047001.2,N
1558684215.9,286047001.2,N
1558684235.7,286047000.9,N
1558684255.6,286047001.8,N
1558684275.4,286046999.9,N
1558684295.2,286047002.7,N
1558684315.1,286047002.7,N
1558684316.0,286047002.7,N
1558684335.8,286047000.8,N
1558684355.7,286046998.8,N
1558684375.5,286046996.5,N
1558684395.3,286046998.6,N
1558684415.2,286047001.0,N
1558684435.0,286046998.2,N
1558684435.9,286046998.2,N
1558684455.8,286047000.4,N
1558684505.6,286047002.6,E
1558684515.5,286047000.7,N
1558684535.4,286047000.8,P
1558684555.2,286046998.1,P
1558684575.1,286046998.7,N
1558684576.0,286046998.7,N
1558684595.8,286046998.9,N
1558684615.6,286046999.0,N
1558684635.5,286046997.3,N
1558684655.3,286046997.3,N
1558684675.1,286046995.1,Y
1558684695.9,286046998.7,P
1558684715.7,286047000.3,P
1558684735.6,286047002.3,P
1558684755.4,286046999.8,N
1558684775.2,286047000.0,N
1558684795.1,286046998.2,N
1558684796.0,286046998.2,N
